This demonstration page uses our WeatherBlox Daily Observations layout. Learn more.

Left ArrowRight Arrow

Hourly Observations for August 10, 2019

Temp ( °F °C ) Dew Point ( °F °C ) Humidity (%) Winds ( mph kmh ) Pressure ( in mb ) Visibility ( mi km ) Precip ( " mm )
12:53 am 00:53 Clear 87 30.6 58 14.4 37 37 SSE 15 24 29.74 1007 10 16 0.00 0.00
1:53 am 01:53 Clear 86 30 57 13.9 37 37 SSE 12 19 29.74 1007 10 16 0.00 0.00
2:53 am 02:53 Clear 83 28.3 56 13.3 40 40 SSE 9 15 29.74 1007 10 16 0.00 0.00
3:53 am 03:53 Clear 83 28.3 56 13.3 40 40 ESE 9 15 29.75 1007 10 16 0.00 0.00
4:53 am 04:53 Clear 81 27.2 57 13.9 44 44 SE 8 13 29.76 1008 10 16 0.00 0.00
5:53 am 05:53 Clear 79 26.1 56 13.3 45 45 SE 9 15 29.75 1008 10 16 0.00 0.00
6:53 am 06:53 Clear 79 26.1 56 13.3 45 45 SE 12 19 29.77 1008 10 16 0.00 0.00
7:53 am 07:53 Sunny 79 26.1 58 14.4 49 49 SE 8 13 29.80 1009 10 16 0.00 0.00
8:53 am 08:53 Sunny 82 27.8 60 15.6 47 47 SE 10 17 29.81 1010 10 16 0.00 0.00
9:53 am 09:53 Sunny 86 30 59 15 40 40 SSE 8 13 29.82 1010 10 16 0.00 0.00
10:53 am 10:53 Sunny 90 32.2 59 15 35 35 E 8 13 29.82 1010 10 16 0.00 0.00
11:53 am 11:53 Sunny 93 33.9 59 15 32 32 VRB 6 9 29.81 1009 10 16 0.00 0.00
12:53 pm 12:53 Sunny 98 36.7 58 14.4 26 26 SSE 9 15 29.78 1008 10 16 0.00 0.00
1:53 pm 13:53 Sunny 100 37.8 57 13.9 24 24 S 9 15 29.76 1008 10 16 0.00 0.00
2:53 pm 14:53 Sunny 102 38.9 56 13.3 22 22 SSE 8 13 29.73 1007 10 16 0.00 0.00
3:53 pm 15:53 Mostly Sunny 102 38.9 53 11.7 19 19 SW 7 11 29.71 1006 10 16 0.00 0.00
4:53 pm 16:53 Sunny 104 40 51 10.6 17 17 SSE 7 11 29.70 1006 10 16 0.00 0.00
5:53 pm 17:53 Sunny 103 39.4 50 10 17 17 SE 7 11 29.69 1006 10 16 0.00 0.00
6:53 pm 18:53 Mostly Cloudy 103 39.4 52 11.1 18 18 SE 14 22 29.68 1005 10 16 0.00 0.00
7:14 pm 19:14 Mostly Cloudy with Nearby Thunderstorms 101 38.3 53 11.7 20 20 SSE 15 24 29.57 1001 10 16 0.00 0.00
7:29 pm 19:29 Mostly Cloudy 98 36.7 56 13.3 24 24 S 17 28 29.59 1002 10 16 0.00 0.00
7:37 pm 19:37 Partly Cloudy with Nearby Thunderstorms 95 35 59 15 30 30 S 23 37 29.62 1003 9 14 0.00 0.00
7:53 pm 19:53 Sunny 93 33.9 60 15.6 33 33 S 13 20 29.72 1006 10 16 0.00 0.00
8:53 pm 20:53 Clear 88 31.1 62 16.7 42 42 SSE 14 22 29.73 1007 10 16 0.00 0.00
9:53 pm 21:53 Clear 89 31.7 58 14.4 35 35 SSW 12 19 29.75 1008 10 16 0.00 0.00
10:53 pm 22:53 Clear 87 30.6 61 16.1 42 42 SSE 8 13 29.78 1008 10 16 0.00 0.00
11:53 pm 23:53 Clear 86 30 63 17.2 46 46 SE 8 13 29.79 1009 10 16 0.00 0.00

Powered by AerisWeather